This is the latest recevied weather packets stored in our database for station/object KE0FIN. If no packets are shown the sender has not sent any weather packets the latest 10 day(s).
| Time | Temp. | Humidity | Pressure | Rain* | Wind** | Luminosity | Snow |
|---|---|---|---|---|---|---|---|
| 1777771999 | 16.11° C | 37% | 1068.8 hPa | 0 mm | - | 0 W/m² | - |
| 1777771696 | 16.67° C | 36% | 1069 hPa | 0 mm | - | 1 W/m² | - |
| 1777771394 | 17.22° C | 34% | 1069.2 hPa | 0 mm | - | 2 W/m² | - |
| 1777771090 | 17.22° C | 33% | 1069 hPa | 0 mm | - | 3 W/m² | - |
| 1777770787 | 17.78° C | 32% | 1069 hPa | 0 mm | - | 5 W/m² | - |
| 1777770483 | 17.78° C | 32% | 1068.9 hPa | 0 mm | - | 6 W/m² | - |
| 1777770181 | 18.33° C | 31% | 1068.9 hPa | 0 mm | - | 9 W/m² | - |
| 1777769878 | 18.33° C | 31% | 1069.2 hPa | 0 mm | - | 11 W/m² | - |
| 1777769575 | 18.89° C | 29% | 1069 hPa | 0 mm | - | 13 W/m² | - |
| 1777769270 | 18.89° C | 29% | 1069.2 hPa | 0 mm | - | 15 W/m² | - |
| 1777768969 | 19.44° C | 27% | 1069 hPa | 0 mm | - | 17 W/m² | - |
| 1777768666 | 19.44° C | 29% | 1069 hPa | 0 mm | - | 19 W/m² | - |
| 1777768363 | 20° C | 28% | 1069.2 hPa | 0 mm | - | 21 W/m² | - |
| 1777768060 | 20° C | 27% | 1069 hPa | 0 mm | - | 24 W/m² | - |
| 1777767757 | 20.56° C | 26% | 1069.2 hPa | 0 mm | - | 26 W/m² | - |
| 1777767453 | 20.56° C | 25% | 1069.3 hPa | 0 mm | - | 28 W/m² | - |
| 1777767149 | 21.11° C | 24% | 1069.3 hPa | 0 mm | - | 37 W/m² | - |
| 1777766847 | 21.67° C | 24% | 1069.2 hPa | 0 mm | - | 38 W/m² | - |
| 1777766544 | 22.78° C | 22% | 1069.4 hPa | 0 mm | - | 62 W/m² | - |
| 1777766241 | 22.78° C | 22% | 1069.4 hPa | 0 mm | - | 108 W/m² | - |
| 1777765939 | 22.78° C | 21% | 1069.5 hPa | 0 mm | - | 119 W/m² | - |
| 1777765635 | 22.78° C | 22% | 1069.7 hPa | 0 mm | - | 130 W/m² | - |
| 1777765332 | 22.78° C | 22% | 1069.4 hPa | 0 mm | - | 142 W/m² | - |
| 1777765028 | 22.78° C | 22% | 1069.6 hPa | 0 mm | - | 108 W/m² | - |
| 1777764725 | 21.67° C | 22% | 1069.6 hPa | 0 mm | - | 167 W/m² | - |
* Rain latest hour (hover to see other rain measurements)
** Current wind speed in m/s (hover to see current wind gust speed)